This demonstration page uses our WeatherBlox Daily Observations layout. Learn more.

39.92423, -83.80882

Hourly Observations for June 19, 2017

Temp ( °F °C ) Dew Point ( °F °C ) Humidity (%) Winds ( mph kmh ) Pressure ( in mb ) Visibility ( mi km ) Precip ( " mm )
12:08 am 00:08 Cloudy 70 21 70 21 100 100 WSW 6 9 29.79 1009 10 16.0934 0 0
12:58 am 00:58 Cloudy with Light Rain 69 20.7 69 20.7 100 100 SW 8 13 29.81 1009 10 16.0934 0.01 0.254
1:58 am 01:58 Cloudy 69 20.4 69 20.4 100 100 W 5 7 29.79 1009 10 16.0934 0 0.0254
2:58 am 02:58 Cloudy 68 20.2 68 20.2 100 100 W 5 7 29.79 1009 10 16.0934 0 0
3:58 am 03:58 Mostly Clear 67 19.5 67 19.5 100 100 WSW 6 9 29.8 1009 10 16.0934 0 0
4:58 am 04:58 Clear 65 18.6 65 18.6 100 100 W 3 6 29.81 1010 10 16.0934 0 0
5:48 am 05:48 Clear with Mist and Fog 63 17 63 17 100 100 SW 3 6 29.82 1010 1.5 2.41401 0 0
5:58 am 05:58 Clear with Fog 63 17.1 63 17.1 100 100 SW 3 6 29.82 1010 7 11.26538 0 0
6:08 am 06:08 Partly Cloudy with Fog 63 17 63 17 100 100 SW 5 7 29.83 1010 7 11.26538 0 0
6:58 am 06:58 Mostly Sunny 64 17.6 64 17.6 100 100 WSW 5 7 29.84 1011 10 16.0934 0 0
7:58 am 07:58 Sunny 67 19.6 67 19.6 100 100 WSW 6 9 29.85 1011 10 16.0934 0 0
8:58 am 08:58 Sunny 71 21.5 67 19.3 87 87 WSW 7 11 29.86 1011 10 16.0934 0 0
9:58 am 09:58 Sunny 73 22.9 64 17.5 72 72 W 8 13 29.87 1012 10 16.0934 0 0
10:58 am 10:58 Sunny 76 24.2 60 15.7 59 59 W 12 19 29.87 1012 10 16.0934 0 0
11:58 am 11:58 Partly Cloudy 77 24.9 58 14.4 52 52 SW 15 24 29.88 1012 10 16.0934 0 0
12:58 pm 12:58 Mostly Sunny 78 25.6 58 14.5 50 50 SW 12 19 29.87 1012 10 16.0934 0 0
1:48 pm 13:48 Mostly Cloudy with Nearby Thunderstorms 77 25 57 14 51 51 SW 15 24 29.85 1011 10 16.0934 0 0
1:58 pm 13:58 Partly Cloudy with Nearby Thunderstorms 79 26.1 58 14.3 48 48 SW 14 22 29.85 1011 10 16.0934 0 0
2:15 pm 14:15 Mostly Cloudy 77 25 55 13 47 47 WNW 22 35 29.86 1011 10 16.0934 0 0
2:24 pm 14:24 Cloudy with Nearby Thunderstorms 73 23 52 11 47 47 W 21 33 29.87 1012 10 16.0934 0 0
2:38 pm 14:38 Cloudy with Light Rain 70 21 57 14 64 64 NW 12 19 29.86 1011 6 9.65604 0 0
2:58 pm 14:58 Cloudy with Nearby Thunderstorms 66 19 61 16 83 83 WNW 9 15 29.89 1012 1.25 2.011675 0 0
2:59 pm 14:59 Cloudy with Nearby Thunderstorms 66 18.8 59 15.2 80 80 W 10 17 29.9 1012 2 3.21868 0.05 1.27
3:15 pm 15:15 Cloudy with Nearby Thunderstorms 63 17 63 17 100 100 W 6 9 29.9 1013 10 16.0934 0 0
3:19 pm 15:19 Cloudy 63 17 63 17 100 100 WSW 5 7 29.89 1012 10 16.0934 0 0
3:44 pm 15:44 Cloudy with Light Rain 64 18 63 17 94 94 SW 9 15 29.88 1012 9 14.48406 0 0
3:58 pm 15:58 Mostly Cloudy 67 19.5 64 17.6 89 89 SW 7 11 29.87 1011 10 16.0934 0.29 7.366
4:52 pm 16:52 Partly Cloudy with Nearby Thunderstorms 75 24 64 18 69 69 SW 12 19 29.85 1011 10 16.0934 0 0
4:58 pm 16:58 Partly Cloudy with Nearby Thunderstorms 74 23.5 63 17.3 68 68 SW 8 13 29.85 1011 10 16.0934 0 0
5:04 pm 17:04 Mostly Cloudy with Nearby Thunderstorms 73 23 63 17 69 69 NW 21 33 29.88 1012 10 16.0934 0 0
5:07 pm 17:07 Windy with Storms Likely 72 22 61 16 69 69 NW 23 37 29.88 1012 7 11.26538 0 0
5:17 pm 17:17 Cloudy with Light Thunderstorms 64 18 63 17 94 94 WNW 9 15 29.89 1012 6 9.65604 0 0
5:28 pm 17:28 Mostly Cloudy with Nearby Thunderstorms 66 19 64 18 94 94 WSW 6 9 29.88 1012 9 14.48406 0 0
5:48 pm 17:48 Partly Cloudy 70 21 64 18 83 83 W 6 9 29.88 1012 10 16.0934 0 0
5:58 pm 17:58 Mostly Cloudy 70 21 65 18.2 84 84 WNW 6 9 29.88 1012 10 16.0934 0.03 0.762
6:23 pm 18:23 Cloudy with Light Drizzle 70 21 66 19 88 88 S 5 7 29.87 1011 10 16.0934 0 0
6:36 pm 18:36 Mostly Cloudy 70 21 66 19 88 88 SSW 7 11 29.87 1011 10 16.0934 0 0
6:50 pm 18:50 Partly Cloudy with Nearby Thunderstorms 72 22 66 19 83 83 VRB 3 6 29.85 1011 10 16.0934 0 0
6:58 pm 18:58 Partly Cloudy with Nearby Thunderstorms 73 22.8 64 18 74 74 SW 12 19 29.85 1011 10 16.0934 0 0.0254
7:25 pm 19:25 Mostly Sunny 73 23 63 17 69 69 SW 8 13 29.86 1011 10 16.0934 0 0
7:58 pm 19:58 Partly Cloudy 74 23.2 62 16.6 67 67 WSW 10 17 29.87 1012 10 16.0934 0 0.0254
8:58 pm 20:58 Sunny 66 19 60 15.5 80 80 NNE 8 13 29.91 1013 10 16.0934 0 0.0254
9:58 pm 21:58 Mostly Clear 62 16.9 58 14.2 84 84 NE 5 7 29.95 1014 10 16.0934 0 0
10:58 pm 22:58 Mostly Clear 61 16 59 15 94 94 S 5 7 29.98 1015 10 16.0934 0 0
11:58 pm 23:58 Mostly Clear 58 14.6 58 14.5 99 99 SW 3 6 29.98 1015 10 16.0934 0 0

Powered by AerisWeather